| time (UTC) | temp C | wind direction | speed KPH | gust KPH | rain 1hr cm | rain 24hr cm | rain mn cm | humidity % | barometer mb |
| 20260510202028 | 15 | 296 | 1.6 | 4.8 | 0.00 | 0.00 | 0.00 | 31 | 1010.0 |
| 20260510201038 | 15 | 329 | 1.6 | 3.2 | 0.00 | 0.00 | 0.00 | 30 | 1010.0 |
| 20260510200033 | 16 | 344 | 1.6 | 3.2 | 0.00 | 0.00 | 0.00 | 30 | 1010.0 |
| 20260510195017 | 16 | 348 | 0.0 | 1.6 | 0.00 | 0.00 | 0.00 | 29 | 1010.0 |
| 20260510194033 | 16 | 14 | 1.6 | 3.2 | 0.00 | 0.00 | 0.00 | 28 | 1010.0 |
| 20260510193018 | 16 | 0.0 | 0.0 | 0.00 | 0.00 | 0.00 | 28 | 1010.0 | |
| 20260510192032 | 16 | 338 | 0.0 | 1.6 | 0.00 | 0.00 | 0.00 | 28 | 1010.0 |
| 20260510191048 | 16 | 0.0 | 0.0 | 0.00 | 0.00 | 0.00 | 28 | 1010.0 | |
| 20260510190022 | 16 | 0.0 | 0.0 | 0.00 | 0.00 | 0.00 | 27 | 1010.0 | |
| 20260510185024 | 17 | 0.0 | 0.0 | 0.00 | 0.00 | 0.00 | 27 | 1010.0 | |
| 20260510184042 | 17 | 0.0 | 0.0 | 0.00 | 0.00 | 0.00 | 27 | 1010.0 | |
| 20260510183021 | 17 | 0.0 | 0.0 | 0.00 | 0.00 | 0.00 | 26 | 1010.0 | |
| 20260510182038 | 17 | 0.0 | 0.0 | 0.00 | 0.00 | 0.00 | 26 | 1010.0 | |
| 20260510181016 | 17 | 0.0 | 0.0 | 0.00 | 0.00 | 0.00 | 26 | 1010.0 | |
| 20260510180025 | 17 | 0.0 | 0.0 | 0.00 | 0.00 | 0.00 | 26 | 1010.0 | |
| 20260510175047 | 18 | 0.0 | 0.0 | 0.00 | 0.00 | 0.00 | 25 | 1010.0 | |
| 20260510174046 | 18 | 0.0 | 0.0 | 0.00 | 0.00 | 0.00 | 25 | 1010.0 | |
| 20260510173020 | 18 | 338 | 0.0 | 1.6 | 0.00 | 0.00 | 0.00 | 24 | 1010.0 |
| 20260510172036 | 18 | 0.0 | 0.0 | 0.00 | 0.00 | 0.00 | 24 | 1010.0 | |
| 20260510171054 | 18 | 0.0 | 0.0 | 0.00 | 0.00 | 0.00 | 24 | 1010.0 | |
| 20260510170020 | 18 | 0.0 | 0.0 | 0.00 | 0.00 | 0.00 | 24 | 1010.0 | |
| 20260510165037 | 18 | 0.0 | 0.0 | 0.00 | 0.00 | 0.00 | 24 | 1010.0 | |
| 20260510164027 | 18 | 0.0 | 0.0 | 0.00 | 0.00 | 0.00 | 24 | 1010.0 | |
| 20260510163018 | 18 | 0.0 | 0.0 | 0.00 | 0.00 | 0.00 | 24 | 1011.0 | |
| 20260510161035 | 18 | 0.0 | 0.0 | 0.00 | 0.00 | 0.00 | 23 | 1011.0 | |
| 20260510160041 | 19 | 23 | 1.6 | 4.8 | 0.00 | 0.00 | 0.00 | 23 | 1011.0 |
| 20260510155035 | 19 | 68 | 0.0 | 1.6 | 0.00 | 0.00 | 0.00 | 23 | 1011.0 |
| 20260510154032 | 19 | 0.0 | 0.0 | 0.00 | 0.00 | 0.00 | 24 | 1011.0 | |
| 20260510153017 | 20 | 0.0 | 0.0 | 0.00 | 0.00 | 0.00 | 23 | 1011.0 | |
| 20260510152106 | 20 | 0.0 | 0.0 | 0.00 | 0.00 | 0.00 | 23 | 1011.5 | |
| 20260510151050 | 20 | 203 | 0.0 | 1.6 | 0.00 | 0.00 | 0.00 | 23 | 1012.0 |
| 20260510150027 | 21 | 338 | 0.0 | 1.6 | 0.00 | 0.00 | 0.00 | 23 | 1012.0 |
| 20260510145047 | 21 | 358 | 0.0 | 1.6 | 0.00 | 0.00 | 0.00 | 23 | 1012.0 |
| 20260510144106 | 21 | 23 | 0.0 | 1.6 | 0.00 | 0.00 | 0.00 | 23 | 1012.0 |
| 20260510143103 | 21 | 23 | 0.0 | 1.6 | 0.00 | 0.00 | 0.00 | 24 | 1012.0 |
| 20260510142033 | 22 | 278 | 1.6 | 1.6 | 0.00 | 0.00 | 0.00 | 24 | 1012.0 |
| 20260510141019 | 22 | 23 | 0.0 | 1.6 | 0.00 | 0.00 | 0.00 | 24 | 1012.0 |
| 20260510140022 | 23 | 341 | 0.0 | 3.2 | 0.00 | 0.00 | 0.00 | 24 | 1012.0 |
| 20260510135048 | 23 | 0.0 | 0.0 | 0.00 | 0.00 | 0.00 | 25 | 1012.5 | |
| 20260510134024 | 23 | 23 | 0.0 | 1.6 | 0.00 | 0.00 | 0.00 | 26 | 1013.0 |
| 20260510133022 | 22 | 6 | 0.0 | 1.6 | 0.00 | 0.00 | 0.00 | 27 | 1013.0 |
| 20260510132046 | 22 | 23 | 0.0 | 1.6 | 0.00 | 0.00 | 0.00 | 28 | 1013.0 |
| 20260510131040 | 22 | 0.0 | 0.0 | 0.00 | 0.00 | 0.00 | 29 | 1013.0 | |
| 20260510130015 | 21 | 0.0 | 0.0 | 0.00 | 0.00 | 0.00 | 30 | 1013.0 | |
| 20260510125032 | 21 | 1 | 0.0 | 1.6 | 0.00 | 0.00 | 0.00 | 31 | 1013.0 |
| 20260510124020 | 21 | 238 | 1.6 | 3.2 | 0.00 | 0.00 | 0.00 | 31 | 1013.0 |
| 20260510123018 | 20 | 294 | 0.0 | 1.6 | 0.00 | 0.00 | 0.00 | 32 | 1014.0 |
| 20260510122016 | 20 | 212 | 1.6 | 3.2 | 0.00 | 0.00 | 0.00 | 32 | 1014.0 |
| 20260510121022 | 20 | 135 | 0.0 | 1.6 | 0.00 | 0.00 | 0.00 | 33 | 1014.0 |
| 20260510120026 | 19 | 34 | 3.2 | 6.4 | 0.00 | 0.00 | 0.00 | 33 | 1014.0 |
| 20260510115050 | 18 | 243 | 1.6 | 1.6 | 0.00 | 0.00 | 0.00 | 33 | 1014.0 |
| 20260510114037 | 18 | 56 | 3.2 | 8.0 | 0.00 | 0.00 | 0.00 | 33 | 1014.0 |
| 20260510113034 | 18 | 23 | 1.6 | 4.8 | 0.00 | 0.00 | 0.00 | 34 | 1014.0 |
| 20260510112018 | 18 | 218 | 1.6 | 4.8 | 0.00 | 0.00 | 0.00 | 34 | 1014.0 |
| 20260510111052 | 18 | 13 | 1.6 | 1.6 | 0.00 | 0.00 | 0.00 | 34 | 1014.0 |
| 20260510110043 | 18 | 55 | 1.6 | 6.4 | 0.00 | 0.00 | 0.00 | 35 | 1014.0 |
| 20260510105044 | 17 | 34 | 1.6 | 3.2 | 0.00 | 0.00 | 0.00 | 35 | 1014.0 |
| 20260510104020 | 17 | 165 | 1.6 | 4.8 | 0.00 | 0.00 | 0.00 | 35 | 1014.0 |
| 20260510103037 | 17 | 198 | 1.6 | 1.6 | 0.00 | 0.00 | 0.00 | 36 | 1015.0 |
| 20260510102034 | 17 | 184 | 1.6 | 3.2 | 0.00 | 0.00 | 0.00 | 36 | 1015.0 |
| 20260510101028 | 17 | 15 | 3.2 | 4.8 | 0.00 | 0.00 | 0.00 | 36 | 1015.0 |
| 20260510100026 | 17 | 211 | 1.6 | 3.2 | 0.00 | 0.00 | 0.00 | 36 | 1015.0 |
| 20260510095047 | 17 | 0.0 | 0.0 | 0.00 | 0.00 | 0.00 | 37 | 1015.0 | |
| 20260510094026 | 16 | 45 | 3.2 | 6.4 | 0.00 | 0.00 | 0.00 | 38 | 1015.0 |
| 20260510093039 | 16 | 9 | 1.6 | 1.6 | 0.00 | 0.00 | 0.00 | 38 | 1015.0 |
| 20260510092022 | 16 | 281 | 0.0 | 1.6 | 0.00 | 0.00 | 0.00 | 39 | 1015.4 |
| 20260510091018 | 16 | 30 | 1.6 | 4.8 | 0.00 | 0.00 | 0.00 | 40 | 1016.1 |
| 20260510090057 | 16 | 360 | 1.6 | 4.8 | 0.00 | 0.00 | 0.00 | 40 | 1016.1 |
| 20260510085030 | 16 | 12 | 1.6 | 3.2 | 0.00 | 0.00 | 0.00 | 41 | 1016.1 |
| 20260510084023 | 15 | 248 | 0.0 | 1.6 | 0.00 | 0.00 | 0.00 | 42 | 1016.1 |
| 20260510083131 | 15 | 225 | 1.6 | 1.6 | 0.00 | 0.00 | 0.00 | 42 | 1016.1 |
| 20260510082044 | 15 | 42 | 1.6 | 3.2 | 0.00 | 0.00 | 0.00 | 42 | 1016.1 |
| 20260510081020 | 15 | 0.0 | 0.0 | 0.00 | 0.00 | 0.00 | 43 | 1016.1 | |
| 20260510080046 | 15 | 338 | 0.0 | 1.6 | 0.00 | 0.00 | 0.00 | 44 | 1016.1 |
| 20260510075025 | 15 | 242 | 0.0 | 1.6 | 0.00 | 0.00 | 0.00 | 44 | 1016.1 |
| 20260510074016 | 15 | 231 | 0.0 | 1.6 | 0.00 | 0.00 | 0.00 | 45 | 1016.1 |
| 20260510073054 | 14 | 338 | 1.6 | 3.2 | 0.00 | 0.00 | 0.00 | 45 | 1016.1 |
| 20260510072040 | 14 | 13 | 0.0 | 1.6 | 0.00 | 0.00 | 0.00 | 45 | 1016.1 |
| 20260510071025 | 14 | 0.0 | 0.0 | 0.00 | 0.00 | 0.00 | 45 | 1016.1 | |
| 20260510070016 | 14 | 243 | 1.6 | 4.8 | 0.00 | 0.00 | 0.00 | 46 | 1016.1 |
| 20260510065024 | 13 | 338 | 1.6 | 1.6 | 0.00 | 0.00 | 0.00 | 46 | 1016.5 |
| 20260510064035 | 13 | 293 | 0.0 | 1.6 | 0.00 | 0.00 | 0.00 | 47 | 1017.1 |
| 20260510063037 | 13 | 293 | 0.0 | 1.6 | 0.00 | 0.00 | 0.00 | 47 | 1017.1 |
| 20260510062047 | 13 | 315 | 1.6 | 1.6 | 0.00 | 0.00 | 0.00 | 48 | 1017.1 |
| 20260510061040 | 12 | 0.0 | 0.0 | 0.00 | 0.00 | 0.00 | 49 | 1017.1 | |
| 20260510060024 | 12 | 0 | 0.0 | 3.2 | 0.00 | 0.00 | 0.00 | 50 | 1017.1 |
| 20260510055047 | 12 | 0.0 | 0.0 | 0.00 | 0.00 | 0.00 | 51 | 1017.1 | |
| 20260510054043 | 12 | 0.0 | 0.0 | 0.00 | 0.00 | 0.00 | 52 | 1017.1 | |
| 20260510053052 | 11 | 0.0 | 0.0 | 0.00 | 0.00 | 0.00 | 52 | 1017.1 | |
| 20260510052021 | 11 | 0.0 | 0.0 | 0.00 | 0.00 | 0.00 | 53 | 1017.1 | |
| 20260510051036 | 11 | 0.0 | 0.0 | 0.00 | 0.00 | 0.00 | 54 | 1017.1 | |
| 20260510045016 | 10 | 0.0 | 0.0 | 0.00 | 0.00 | 0.00 | 55 | 1017.1 | |
| 20260510044047 | 10 | 0.0 | 0.0 | 0.00 | 0.00 | 0.00 | 55 | 1017.1 | |
| 20260510043028 | 9 | 0.0 | 0.0 | 0.00 | 0.00 | 0.00 | 56 | 1017.1 | |
| 20260510042033 | 9 | 0.0 | 0.0 | 0.00 | 0.00 | 0.00 | 56 | 1017.1 | |
| 20260510041016 | 8 | 0.0 | 0.0 | 0.00 | 0.00 | 0.00 | 57 | 1017.1 | |
| 20260510040045 | 8 | 0.0 | 0.0 | 0.00 | 0.00 | 0.00 | 58 | 1017.1 | |
| 20260510035019 | 8 | 0.0 | 0.0 | 0.00 | 0.00 | 0.00 | 58 | 1017.1 | |
| 20260510034052 | 8 | 0.0 | 0.0 | 0.00 | 0.00 | 0.00 | 58 | 1017.1 | |
| 20260510033019 | 8 | 0.0 | 0.0 | 0.00 | 0.00 | 0.00 | 58 | 1017.1 | |
| 20260510032049 | 8 | 0.0 | 0.0 | 0.00 | 0.00 | 0.00 | 58 | 1017.1 | |
| 20260510031106 | 8 | 0.0 | 0.0 | 0.00 | 0.00 | 0.00 | 58 | 1017.1 | |
| 20260510030019 | 8 | 0.0 | 0.0 | 0.00 | 0.00 | 0.00 | 58 | 1017.1 | |
| 20260510025043 | 8 | 0.0 | 0.0 | 0.00 | 0.00 | 0.00 | 57 | 1017.1 | |
| 20260510024047 | 8 | 0.0 | 0.0 | 0.00 | 0.00 | 0.00 | 57 | 1017.1 | |
| 20260510023017 | 8 | 0.0 | 0.0 | 0.00 | 0.00 | 0.00 | 57 | 1018.1 | |
| 20260510022018 | 8 | 0.0 | 0.0 | 0.00 | 0.00 | 0.00 | 57 | 1018.1 | |
| 20260510021033 | 8 | 0.0 | 0.0 | 0.00 | 0.00 | 0.00 | 57 | 1018.1 | |
| 20260510020035 | 8 | 0.0 | 0.0 | 0.00 | 0.00 | 0.00 | 57 | 1018.1 | |
| 20260510015034 | 8 | 0.0 | 0.0 | 0.00 | 0.00 | 0.00 | 57 | 1018.1 | |
| 20260510014028 | 8 | 0.0 | 0.0 | 0.00 | 0.00 | 0.00 | 57 | 1018.1 | |
| 20260510013024 | 8 | 0.0 | 0.0 | 0.00 | 0.00 | 0.00 | 57 | 1018.1 | |
| 20260510012024 | 8 | 0.0 | 0.0 | 0.00 | 0.00 | 0.00 | 56 | 1018.1 | |
| 20260510011023 | 8 | 0.0 | 0.0 | 0.00 | 0.00 | 0.00 | 56 | 1018.1 | |
| 20260510010022 | 8 | 0.0 | 0.0 | 0.00 | 0.00 | 0.00 | 56 | 1018.1 | |
| 20260510005019 | 8 | 0.0 | 0.0 | 0.00 | 0.00 | 0.00 | 56 | 1018.1 | |
| 20260510004043 | 8 | 0.0 | 0.0 | 0.00 | 0.00 | 0.00 | 56 | 1018.1 | |
| 20260510003046 | 8 | 0.0 | 0.0 | 0.00 | 0.00 | 0.00 | 56 | 1018.1 | |
| 20260510002107 | 8 | 0.0 | 0.0 | 0.00 | 0.00 | 0.00 | 56 | 1018.1 | |
| 20260510001034 | 8 | 0.0 | 0.0 | 0.00 | 0.00 | 0.00 | 56 | 1018.1 | |
| 20260510000027 | 8 | 0.0 | 0.0 | 0.00 | 0.00 | 0.00 | 56 | 1018.1 | |
| 20260509235038 | 8 | 0.0 | 0.0 | 0.00 | 0.00 | 0.00 | 55 | 1018.1 | |
| 20260509234042 | 9 | 0.0 | 0.0 | 0.00 | 0.00 | 0.00 | 55 | 1018.1 | |
| 20260509233045 | 9 | 0.0 | 0.0 | 0.00 | 0.00 | 0.00 | 54 | 1018.1 | |
| 20260509232027 | 9 | 0.0 | 0.0 | 0.00 | 0.00 | 0.00 | 54 | 1018.1 | |
| 20260509231032 | 9 | 0.0 | 0.0 | 0.00 | 0.00 | 0.00 | 54 | 1018.1 | |
| 20260509230046 | 9 | 0.0 | 0.0 | 0.00 | 0.00 | 0.00 | 54 | 1018.1 | |
| 20260509225036 | 10 | 0.0 | 0.0 | 0.00 | 0.00 | 0.00 | 53 | 1018.5 | |
| 20260509224034 | 10 | 0.0 | 0.0 | 0.00 | 0.00 | 0.00 | 53 | 1019.1 | |
| 20260509223044 | 10 | 0.0 | 0.0 | 0.00 | 0.00 | 0.00 | 53 | 1019.1 | |
| 20260509222037 | 10 | 0.0 | 0.0 | 0.00 | 0.00 | 0.00 | 52 | 1019.1 | |
| 20260509221034 | 10 | 0.0 | 0.0 | 0.00 | 0.00 | 0.00 | 52 | 1019.1 | |
| 20260509220033 | 10 | 0.0 | 0.0 | 0.00 | 0.00 | 0.00 | 51 | 1019.1 | |
| 20260509215038 | 10 | 0.0 | 0.0 | 0.00 | 0.00 | 0.00 | 51 | 1019.1 | |
| 20260509214032 | 10 | 0.0 | 0.0 | 0.00 | 0.00 | 0.00 | 51 | 1019.1 | |
| 20260509213044 | 10 | 0.0 | 0.0 | 0.00 | 0.00 | 0.00 | 51 | 1019.1 | |
| 20260509212032 | 10 | 0.0 | 0.0 | 0.00 | 0.00 | 0.00 | 50 | 1019.1 | |
| 20260509211045 | 10 | 0.0 | 0.0 | 0.00 | 0.00 | 0.00 | 50 | 1019.1 | |
| 20260509210019 | 10 | 0.0 | 0.0 | 0.00 | 0.00 | 0.00 | 50 | 1019.1 | |
| 20260509205035 | 10 | 0.0 | 0.0 | 0.00 | 0.00 | 0.00 | 50 | 1019.1 | |
| 20260509204034 | 10 | 0.0 | 0.0 | 0.00 | 0.00 | 0.00 | 49 | 1019.1 | |
| 20260509203048 | 11 | 0.0 | 0.0 | 0.00 | 0.00 | 0.00 | 49 | 1019.1 |